Tracking 20623 objects as of 4-Apr-2020
HD Live streaming from Space Station
objects crossing your sky now

STARLINK-1227

Track STARLINK-1227 now!
10-day predictions


NORAD ID: 45230
Int'l Code: 2020-012BE
Perigee: 381.2 km
Apogee: 392.4 km
Inclination: 53.0 °
Period: 92.1 minutes
Semi major axis: 6757 km
RCS: Unknown
Launch date: February 17, 2020
Source: United States (US)
Launch site: AIR FORCE EASTERN TEST RANGE (AFETR)
aabbcc
Your satellite tracking list
Your tracking list is empty




NASA's NSSDC Master Catalog

Two Line Element Set (TLE):
1 45230U 20012BE  20094.91667824 -.00008609 +00000-0 -87969-4 0  9995
2 45230 053.0000 039.5552 0008249 327.2768 331.8235 15.62767442001775
Source of the keplerian elements: AFSPC